Time,TemperatureF,DewpointF,PressureIn,WindDirection,WindDirectionDegrees,WindSpeedMPH,WindSpeedGustMPH,Humidity,HourlyPrecipIn,Conditions,Clouds,dailyrainin,SoftwareType,DateUTC
2013-05-13 00:02:00,42.0,23.0,-100.00,SSW,195,0.0,0.0,47,0.00,,,0.00,,2013-05-13 05:02:00,
2013-05-13 00:12:00,42.0,27.0,-100.00,SSW,195,0.0,0.0,51,0.00,,,0.00,,2013-05-13 05:12:00,
2013-05-13 00:21:00,42.0,27.0,-100.00,South,185,0.0,0.0,54,0.00,,,0.00,,2013-05-13 05:21:00,
2013-05-13 00:32:00,42.0,27.0,-100.00,SSE,155,0.0,0.0,53,0.00,,,0.00,,2013-05-13 05:32:00,
2013-05-13 00:42:00,41.0,23.0,-100.00,SW,220,0.0,0.0,48,0.00,,,0.00,,2013-05-13 05:42:00,
2013-05-13 00:51:00,40.0,23.0,-100.00,SSW,210,0.0,0.0,51,0.00,,,0.00,,2013-05-13 05:51:00,
2013-05-13 01:01:00,41.0,25.0,-100.00,South,180,0.0,0.0,52,0.00,,,0.00,,2013-05-13 06:01:00,
2013-05-13 01:11:00,41.0,25.0,-100.00,SE,145,0.0,0.0,52,0.00,,,0.00,,2013-05-13 06:11:00,
2013-05-13 01:21:00,40.0,27.0,-100.00,South,190,0.0,0.0,60,0.00,,,0.00,,2013-05-13 06:21:00,
2013-05-13 01:31:00,41.0,27.0,-100.00,South,185,0.0,0.0,56,0.00,,,0.00,,2013-05-13 06:31:00,
2013-05-13 01:42:00,40.0,25.0,-100.00,SSW,200,0.0,0.0,55,0.00,,,0.00,,2013-05-13 06:42:00,
2013-05-13 01:52:00,39.0,27.0,-100.00,SSW,195,0.0,0.0,57,0.00,,,0.00,,2013-05-13 06:52:00,
2013-05-13 02:01:00,39.0,25.0,-100.00,South,185,0.0,0.0,57,0.00,,,0.00,,2013-05-13 07:01:00,
2013-05-13 02:11:00,39.0,27.0,-100.00,South,175,0.0,0.0,59,0.00,,,0.00,,2013-05-13 07:11:00,
2013-05-13 02:22:00,39.0,27.0,-100.00,South,175,0.0,0.0,61,0.00,,,0.00,,2013-05-13 07:22:00,
2013-05-13 02:31:00,38.0,27.0,-100.00,SE,135,0.0,0.0,61,0.00,,,0.00,,2013-05-13 07:31:00,
2013-05-13 02:41:00,36.0,27.0,-100.00,ESE,105,0.0,0.0,65,0.00,,,0.00,,2013-05-13 07:41:00,
2013-05-13 02:52:00,37.0,27.0,-100.00,East,95,0.0,0.0,66,0.00,,,0.00,,2013-05-13 07:52:00,
2013-05-13 03:02:00,35.0,27.0,-100.00,SE,125,0.0,0.0,71,0.00,,,0.00,,2013-05-13 08:02:00,
2013-05-13 03:11:00,35.0,28.0,-100.00,ESE,110,0.0,0.0,75,0.00,,,0.00,,2013-05-13 08:11:00,
2013-05-13 03:21:00,38.0,27.0,-100.00,SE,130,0.0,0.0,66,0.00,,,0.00,,2013-05-13 08:21:00,
2013-05-13 03:31:00,39.0,27.0,-100.00,SE,140,0.0,0.0,59,0.00,,,0.00,,2013-05-13 08:31:00,
2013-05-13 03:42:00,40.0,27.0,-100.00,South,190,0.0,0.0,59,0.00,,,0.00,,2013-05-13 08:42:00,
2013-05-13 03:51:00,41.0,27.0,-100.00,South,180,0.0,0.0,55,0.00,,,0.00,,2013-05-13 08:51:00,
2013-05-13 04:01:00,41.0,27.0,-100.00,SSE,150,0.0,0.0,53,0.00,,,0.00,,2013-05-13 09:01:00,
2013-05-13 04:11:00,41.0,27.0,-100.00,SSE,150,0.0,0.0,54,0.00,,,0.00,,2013-05-13 09:11:00,
2013-05-13 04:21:00,39.0,27.0,-100.00,SE,130,0.0,0.0,57,0.00,,,0.00,,2013-05-13 09:21:00,
2013-05-13 04:33:00,38.0,25.0,-100.00,SE,135,0.0,0.0,60,0.00,,,0.00,,2013-05-13 09:33:00,
2013-05-13 04:42:00,39.0,25.0,-100.00,SE,140,0.0,0.0,56,0.00,,,0.00,,2013-05-13 09:42:00,
2013-05-13 04:52:00,40.0,25.0,-100.00,SSE,165,0.0,0.0,54,0.00,,,0.00,,2013-05-13 09:52:00,
2013-05-13 05:03:00,41.0,25.0,-100.00,SSE,165,0.0,0.0,53,0.00,,,0.00,,2013-05-13 10:03:00,
2013-05-13 05:12:00,40.0,27.0,-100.00,South,170,0.0,0.0,56,0.00,,,0.00,,2013-05-13 10:12:00,
2013-05-13 05:22:00,41.0,25.0,-100.00,South,180,0.0,0.0,53,0.00,,,0.00,,2013-05-13 10:22:00,
2013-05-13 05:32:00,40.0,27.0,-100.00,South,175,0.0,0.0,58,0.00,,,0.00,,2013-05-13 10:32:00,
2013-05-13 05:42:00,40.0,25.0,-100.00,SSE,160,0.0,0.0,56,0.00,,,0.00,,2013-05-13 10:42:00,
2013-05-13 05:52:00,40.0,25.0,-100.00,SE,145,0.0,0.0,56,0.00,,,0.00,,2013-05-13 10:52:00,
2013-05-13 06:02:00,40.0,25.0,-100.00,SSE,165,0.0,0.0,53,0.00,,,0.00,,2013-05-13 11:02:00,
2013-05-13 06:12:00,40.0,25.0,-100.00,SSE,165,0.0,0.0,56,0.00,,,0.00,,2013-05-13 11:12:00,
2013-05-13 06:21:00,40.0,27.0,-100.00,South,170,0.0,0.0,59,0.00,,,0.00,,2013-05-13 11:21:00,
2013-05-13 06:32:00,39.0,27.0,-100.00,SSE,160,0.0,0.0,62,0.00,,,0.00,,2013-05-13 11:32:00,
2013-05-13 06:42:00,39.0,27.0,-100.00,SSE,160,0.0,0.0,62,0.00,,,0.00,,2013-05-13 11:42:00,
2013-05-13 06:51:00,39.0,27.0,-100.00,South,170,0.0,0.0,60,0.00,,,0.00,,2013-05-13 11:51:00,
2013-05-13 07:01:00,41.0,27.0,-100.00,South,180,0.0,0.0,58,0.00,,,0.00,,2013-05-13 12:01:00,
2013-05-13 07:11:00,41.0,27.0,-100.00,South,175,0.0,0.0,57,0.00,,,0.00,,2013-05-13 12:11:00,
2013-05-13 07:21:00,41.0,27.0,-100.00,SSE,155,0.0,0.0,58,0.00,,,0.00,,2013-05-13 12:21:00,
2013-05-13 07:32:00,43.0,28.0,-100.00,SSE,165,0.0,0.0,59,0.00,,,0.00,,2013-05-13 12:32:00,
2013-05-13 07:42:00,45.0,28.0,-100.00,South,175,0.0,0.0,52,0.00,,,0.00,,2013-05-13 12:42:00,
2013-05-13 07:51:00,45.0,28.0,-100.00,South,175,0.0,0.0,50,0.00,,,0.00,,2013-05-13 12:51:00,
2013-05-13 08:01:00,46.0,28.0,-100.00,SSE,160,0.0,0.0,49,0.00,,,0.00,,2013-05-13 13:01:00,
2013-05-13 08:11:00,47.0,28.0,-100.00,SSE,160,0.0,0.0,47,0.00,,,0.00,,2013-05-13 13:11:00,
2013-05-13 08:21:00,48.0,28.0,-100.00,South,175,0.0,0.0,47,0.00,,,0.00,,2013-05-13 13:21:00,
2013-05-13 08:31:00,50.0,28.0,-100.00,South,175,0.0,0.0,43,0.00,,,0.00,,2013-05-13 13:31:00,
2013-05-13 08:41:00,51.0,28.0,-100.00,SSE,165,0.0,0.0,40,0.00,,,0.00,,2013-05-13 13:41:00,
2013-05-13 08:52:00,53.0,28.0,-100.00,South,185,0.0,0.0,38,0.00,,,0.00,,2013-05-13 13:52:00,
2013-05-13 09:02:00,54.0,28.0,-100.00,South,190,0.0,0.0,36,0.00,,,0.00,,2013-05-13 14:02:00,
2013-05-13 09:11:00,54.0,28.0,-100.00,South,180,0.0,0.0,37,0.00,,,0.00,,2013-05-13 14:11:00,
2013-05-13 09:22:00,55.0,28.0,-100.00,South,180,0.0,0.0,35,0.00,,,0.00,,2013-05-13 14:22:00,
2013-05-13 09:31:00,55.0,27.0,-100.00,South,185,0.0,0.0,32,0.00,,,0.00,,2013-05-13 14:31:00,
2013-05-13 09:41:00,56.0,27.0,-100.00,SSE,165,0.0,0.0,32,0.00,,,0.00,,2013-05-13 14:41:00,
2013-05-13 09:51:00,56.0,27.0,-100.00,South,170,0.0,0.0,32,0.00,,,0.00,,2013-05-13 14:51:00,
2013-05-13 10:01:00,56.0,27.0,-100.00,South,175,0.0,0.0,32,0.00,,,0.00,,2013-05-13 15:01:00,
2013-05-13 10:11:00,57.0,28.0,-100.00,SSE,165,0.0,0.0,33,0.00,,,0.00,,2013-05-13 15:11:00,
2013-05-13 10:21:00,57.0,27.0,-100.00,SSE,160,0.0,0.0,30,0.00,,,0.00,,2013-05-13 15:21:00,
2013-05-13 10:31:00,58.0,27.0,-100.00,South,180,0.0,0.0,29,0.00,,,0.00,,2013-05-13 15:31:00,
2013-05-13 10:42:00,58.0,27.0,-100.00,South,185,0.0,0.0,28,0.00,,,0.00,,2013-05-13 15:42:00,
2013-05-13 10:52:00,59.0,27.0,-100.00,South,180,0.0,0.0,28,0.00,,,0.00,,2013-05-13 15:52:00,
2013-05-13 11:03:00,59.0,27.0,-100.00,SSE,160,0.0,0.0,28,0.00,,,0.00,,2013-05-13 16:03:00,
2013-05-13 11:11:00,59.0,27.0,-100.00,SSE,160,0.0,0.0,28,0.00,,,0.00,,2013-05-13 16:11:00,
2013-05-13 11:21:00,58.0,28.0,-100.00,SSE,165,0.0,0.0,32,0.00,,,0.00,,2013-05-13 16:21:00,
2013-05-13 11:33:00,58.0,28.0,-100.00,SSE,165,0.0,0.0,33,0.00,,,0.00,,2013-05-13 16:33:00,
2013-05-13 11:42:00,58.0,32.0,-100.00,SSE,155,0.0,0.0,37,0.00,,,0.00,,2013-05-13 16:42:00,
2013-05-13 11:52:00,60.0,30.0,-100.00,SSE,150,0.0,0.0,33,0.00,,,0.00,,2013-05-13 16:52:00,
2013-05-13 12:02:00,60.0,30.0,-100.00,SSE,155,0.0,0.0,31,0.00,,,0.00,,2013-05-13 17:02:00,
2013-05-13 12:12:00,62.0,30.0,-100.00,SSE,155,0.0,0.0,30,0.00,,,0.00,,2013-05-13 17:12:00,
2013-05-13 12:21:00,62.0,28.0,-100.00,South,170,0.0,0.0,27,0.00,,,0.00,,2013-05-13 17:21:00,
2013-05-13 12:32:00,61.0,30.0,-100.00,SSE,165,0.0,0.0,30,0.00,,,0.00,,2013-05-13 17:32:00,
2013-05-13 12:42:00,62.0,32.0,-100.00,South,170,0.0,0.0,32,0.00,,,0.00,,2013-05-13 17:42:00,
2013-05-13 12:54:00,62.0,28.0,-100.00,South,175,0.0,0.0,27,0.00,,,0.00,,2013-05-13 17:54:00,
2013-05-13 13:03:00,63.0,30.0,-100.00,SSE,165,0.0,0.0,27,0.00,,,0.00,,2013-05-13 18:03:00,
2013-05-13 13:12:00,64.0,28.0,-100.00,SSE,160,0.0,0.0,26,0.00,,,0.00,,2013-05-13 18:12:00,
2013-05-13 13:23:00,64.0,32.0,-100.00,South,175,0.0,0.0,29,0.00,,,0.00,,2013-05-13 18:23:00,
2013-05-13 13:32:00,65.0,32.0,-100.00,South,170,0.0,0.0,30,0.00,,,0.00,,2013-05-13 18:32:00,
2013-05-13 13:42:00,66.0,32.0,-100.00,SSE,160,0.0,0.0,28,0.00,,,0.00,,2013-05-13 18:42:00,
2013-05-13 13:51:00,65.0,32.0,-100.00,South,170,0.0,0.0,28,0.00,,,0.00,,2013-05-13 18:51:00,
2013-05-13 14:01:00,65.0,34.0,-100.00,South,185,0.0,0.0,29,0.00,,,0.00,,2013-05-13 19:01:00,
2013-05-13 14:11:00,66.0,34.0,-100.00,South,170,0.0,0.0,30,0.00,,,0.00,,2013-05-13 19:11:00,
2013-05-13 14:21:00,67.0,36.0,-100.00,SSE,165,0.0,0.0,30,0.00,,,0.00,,2013-05-13 19:21:00,
2013-05-13 14:32:00,67.0,36.0,-100.00,South,175,0.0,0.0,30,0.00,,,0.00,,2013-05-13 19:32:00,
2013-05-13 14:43:00,69.0,37.0,-100.00,South,170,0.0,0.0,30,0.00,,,0.00,,2013-05-13 19:43:00,
2013-05-13 14:53:00,68.0,36.0,-100.00,South,175,0.0,0.0,30,0.00,,,0.00,,2013-05-13 19:53:00,
2013-05-13 15:01:00,69.0,37.0,-100.00,South,170,0.0,0.0,31,0.00,,,0.00,,2013-05-13 20:01:00,
2013-05-13 15:11:00,68.0,37.0,-100.00,SSE,165,0.0,0.0,31,0.00,,,0.00,,2013-05-13 20:11:00,
2013-05-13 15:23:00,70.0,37.0,-100.00,SSE,155,0.0,0.0,31,0.00,,,0.00,,2013-05-13 20:23:00,
2013-05-13 15:33:00,70.0,37.0,-100.00,SSE,165,0.0,0.0,30,0.00,,,0.00,,2013-05-13 20:33:00,
2013-05-13 15:44:00,70.0,39.0,-100.00,South,170,0.0,0.0,31,0.00,,,0.00,,2013-05-13 20:44:00,
2013-05-13 15:53:00,71.0,39.0,-100.00,SSE,165,0.0,0.0,31,0.00,,,0.00,,2013-05-13 20:53:00,
2013-05-13 16:03:00,72.0,41.0,-100.00,South,170,0.0,0.0,33,0.00,,,0.00,,2013-05-13 21:03:00,
2013-05-13 16:14:00,72.0,41.0,-100.00,South,185,0.0,0.0,32,0.00,,,0.00,,2013-05-13 21:14:00,
2013-05-13 16:23:00,74.0,41.0,-100.00,South,170,0.0,0.0,31,0.00,,,0.00,,2013-05-13 21:23:00,
2013-05-13 16:33:00,74.0,43.0,-100.00,South,185,0.0,0.0,32,0.00,,,0.00,,2013-05-13 21:33:00,
2013-05-13 16:43:00,74.0,43.0,-100.00,South,170,0.0,1.0,31,0.00,,,0.00,,2013-05-13 21:43:00,
2013-05-13 16:53:00,74.0,43.0,-100.00,South,175,0.0,0.0,31,0.00,,,0.00,,2013-05-13 21:53:00,
2013-05-13 17:02:00,75.0,43.0,-100.00,SSE,165,0.0,0.0,32,0.00,,,0.00,,2013-05-13 22:02:00,
2013-05-13 17:12:00,75.0,45.0,-100.00,South,170,0.0,0.0,32,0.00,,,0.00,,2013-05-13 22:12:00,
2013-05-13 17:23:00,77.0,45.0,-100.00,SSE,165,0.0,0.0,30,0.00,,,0.00,,2013-05-13 22:23:00,
2013-05-13 17:32:00,78.0,45.0,-100.00,South,185,0.0,0.0,30,0.00,,,0.00,,2013-05-13 22:32:00,
2013-05-13 17:42:00,78.0,45.0,-100.00,South,175,0.0,0.0,30,0.00,,,0.00,,2013-05-13 22:42:00,
2013-05-13 17:52:00,78.0,45.0,-100.00,South,175,0.0,0.0,29,0.00,,,0.00,,2013-05-13 22:52:00,
2013-05-13 18:02:00,79.0,45.0,-100.00,South,170,0.0,0.0,30,0.00,,,0.00,,2013-05-13 23:02:00,
2013-05-13 18:12:00,80.0,45.0,-100.00,South,175,0.0,0.0,29,0.00,,,0.00,,2013-05-13 23:12:00,
2013-05-13 18:23:00,79.0,46.0,-100.00,South,180,0.0,0.0,30,0.00,,,0.00,,2013-05-13 23:23:00,
2013-05-13 18:33:00,80.0,46.0,-100.00,South,180,0.0,0.0,30,0.00,,,0.00,,2013-05-13 23:33:00,
2013-05-13 18:42:00,79.0,46.0,-100.00,South,170,0.0,0.0,31,0.00,,,0.00,,2013-05-13 23:42:00,
2013-05-13 18:53:00,79.0,46.0,-100.00,South,175,0.0,0.0,31,0.00,,,0.00,,2013-05-13 23:53:00,
2013-05-13 19:02:00,78.0,46.0,-100.00,SSE,165,0.0,0.0,33,0.00,,,0.00,,2013-05-14 00:02:00,
2013-05-13 19:12:00,78.0,46.0,-100.00,SSE,155,0.0,0.0,33,0.00,,,0.00,,2013-05-14 00:12:00,
2013-05-13 19:22:00,78.0,48.0,-100.00,South,180,0.0,0.0,34,0.00,,,0.00,,2013-05-14 00:22:00,
2013-05-13 19:31:00,79.0,48.0,-100.00,South,190,0.0,0.0,33,0.00,,,0.00,,2013-05-14 00:31:00,
2013-05-13 19:41:00,79.0,46.0,-100.00,South,175,0.0,0.0,32,0.00,,,0.00,,2013-05-14 00:41:00,
2013-05-13 19:51:00,78.0,48.0,-100.00,South,170,0.0,0.0,33,0.00,,,0.00,,2013-05-14 00:51:00,
2013-05-13 20:01:00,75.0,48.0,-100.00,SE,140,0.0,0.0,39,0.00,,,0.00,,2013-05-14 01:01:00,
2013-05-13 20:11:00,74.0,48.0,-100.00,SE,140,0.0,0.0,39,0.00,,,0.00,,2013-05-14 01:11:00,
2013-05-13 20:21:00,75.0,48.0,-100.00,SSE,160,0.0,0.0,37,0.00,,,0.00,,2013-05-14 01:21:00,
2013-05-13 20:32:00,75.0,48.0,-100.00,South,175,0.0,0.0,38,0.00,,,0.00,,2013-05-14 01:32:00,
2013-05-13 20:43:00,75.0,46.0,-100.00,South,175,0.0,0.0,36,0.00,,,0.00,,2013-05-14 01:43:00,
2013-05-13 20:52:00,75.0,46.0,-100.00,South,180,0.0,0.0,37,0.00,,,0.00,,2013-05-14 01:52:00,
2013-05-13 21:02:00,74.0,48.0,-100.00,South,180,0.0,0.0,38,0.00,,,0.00,,2013-05-14 02:02:00,
2013-05-13 21:11:00,74.0,46.0,-100.00,South,180,0.0,0.0,38,0.00,,,0.00,,2013-05-14 02:11:00,
2013-05-13 21:22:00,73.0,46.0,-100.00,South,190,0.0,0.0,39,0.00,,,0.00,,2013-05-14 02:22:00,
2013-05-13 21:32:00,72.0,48.0,-100.00,SSW,200,0.0,0.0,40,0.00,,,0.00,,2013-05-14 02:32:00,
2013-05-13 21:42:00,72.0,46.0,-100.00,South,190,0.0,0.0,40,0.00,,,0.00,,2013-05-14 02:42:00,
2013-05-13 21:51:00,70.0,48.0,-100.00,South,190,0.0,0.0,45,0.00,,,0.00,,2013-05-14 02:51:00,
2013-05-13 22:01:00,71.0,48.0,-100.00,South,185,0.0,0.0,42,0.00,,,0.00,,2013-05-14 03:01:00,
2013-05-13 22:11:00,70.0,48.0,-100.00,South,185,0.0,0.0,44,0.00,,,0.00,,2013-05-14 03:11:00,
2013-05-13 22:21:00,70.0,46.0,-100.00,SSW,195,0.0,0.0,43,0.00,,,0.00,,2013-05-14 03:21:00,
2013-05-13 22:33:00,71.0,46.0,-100.00,SSW,200,0.0,0.0,42,0.00,,,0.00,,2013-05-14 03:33:00,
2013-05-13 22:42:00,71.0,46.0,-100.00,SSW,200,0.0,0.0,42,0.00,,,0.00,,2013-05-14 03:42:00,
2013-05-13 22:52:00,70.0,46.0,-100.00,SSW,200,0.0,0.0,42,0.00,,,0.00,,2013-05-14 03:52:00,
2013-05-13 23:02:00,69.0,46.0,-100.00,South,190,0.0,0.0,44,0.00,,,0.00,,2013-05-14 04:02:00,
2013-05-13 23:13:00,69.0,46.0,-100.00,South,185,0.0,0.0,44,0.00,,,0.00,,2013-05-14 04:13:00,
2013-05-13 23:22:00,68.0,46.0,-100.00,SSW,210,0.0,0.0,45,0.00,,,0.00,,2013-05-14 04:22:00,
2013-05-13 23:32:00,68.0,46.0,-100.00,South,180,0.0,0.0,46,0.00,,,0.00,,2013-05-14 04:32:00,
2013-05-13 23:43:00,67.0,46.0,-100.00,South,185,0.0,0.0,47,0.00,,,0.00,,2013-05-14 04:43:00,
2013-05-13 23:52:00,67.0,46.0,-100.00,SSW,195,0.0,0.0,48,0.00,,,0.00,,2013-05-14 04:52:00,